Regional Weather Roundup
Issued by NWS

Home | Current Version | Previous Version | Graphics & Text | Print | Product List | Glossary On
Versions: 1 2 3 4 5 6 7 8 9 10 11 12 13 14 15 16 17 18 19 20 21 22 23 24 25 26 27 28 29 30 31 32 33 34 35 36 37 38 39 40 41 42 43 44 45 46 47 48 49 50
865
ASUS45 KTFX 270810
RWRMT
MONTANA REGIONAL WEATHER ROUNDUP
NATIONAL WEATHER SERVICE GREAT FALLS MT
200 AM MDT WED JUL 27 2016

NOTE: "FAIR" INDICATES FEW OR NO CLOUDS BELOW 12000 FEET WITH NO
SIGNIFICANT WEATHER AND/OR OBSTRUCTIONS TO VISIBILITY.

MTZ001>007-043-270900-
WEST OF THE DIVIDE

CITY           SKY/WX    TMP DP  RH WIND       PRES   REMARKS
KALISPELL      CLEAR     57  52  83 E7        30.07S
MISSOULA       CLEAR     64  52  64 CALM      30.09S
BUTTE          CLEAR     49  40  71 SE7       30.23S
MULLAN PASS    PTCLDY    60  44  55 N5        30.24F
ANACONDA         N/A     55  45  67 SW5       30.19S
DEER LODGE       N/A     57  48  72 CALM      30.20S
EUREKA           N/A     57  52  82 CALM      30.10R
HAMILTON         N/A     63  48  59 CALM      30.10F
LIBBY            N/A     63  50  63 SE3       30.09R
PLAINS           N/A     61  49  64 CALM      30.07S
RONAN            N/A     56  51  83 CALM      30.11S
$$

MTZ008-052>055-270900-
SOUTHWEST MONTANA

CITY           SKY/WX    TMP DP  RH WIND       PRES   REMARKS
BOZEMAN        CLEAR     59  46  62 SW6       30.17R
DILLON         CLEAR     51  42  71 S3        30.20F
W YELLOWSTONE  MOCLDY    50  37  62 CALM      30.29S
ENNIS          CLEAR     50  41  71 CALM      30.25S
THREE FORKS      N/A     55  35  46 CALM      30.13S
TWIN BRIDGES     N/A     50  42  73 SE2       30.16S
$$

MTZ009-010-012-014-046-048-049-054-270900-
EAST SLOPES AND CENTRAL MONTANA

CITY           SKY/WX    TMP DP  RH WIND       PRES   REMARKS
CUT BANK       MOCLDY    57  55  93 CALM      30.16R
GREAT FALLS    CLEAR     55  53  93 W8        30.14F
MALMSTROM AFB  CLEAR     60  56  86 W9        30.12F
HELENA         PTCLDY    65  52  62 W9        30.15R
CHOTEAU          N/A     55  54  94 W7        30.17F
$$

MTZ011-013-016-021-045-047-050-051-270900-
NORTH CENTRAL MONTANA

CITY           SKY/WX    TMP DP  RH WIND       PRES   REMARKS
HAVRE          CLOUDY    61  58  90 S6        30.09R
LEWISTOWN      MOCLDY    61  54  77 E7        30.14F
N BAR RANCH      N/A     59  55  88 SW6       30.17F
CHINOOK          N/A     63  59  88 N3        30.09R
$$

MTZ017>020-022>027-061-062-270900-
NORTHEAST MONTANA

CITY           SKY/WX    TMP DP  RH WIND       PRES   REMARKS
GLASGOW        LGT RAIN  61  59  93 E8        30.06F
JORDAN           N/A     62  60  93 E18       30.07F
SIDNEY         CLOUDY    61  58  90 N3        30.10R
WOLF POINT     LGT RAIN  68  58  70 W16       30.12R
PLENTYWOOD       N/A     59  55  88 NE5       30.10S
POPLAR           N/A     63  57  82 CALM      30.10R
SCOBEY           N/A     61  51  69 NE2       30.08S
$$

MTZ028>42-056>058-270900-
SOUTHCENTRAL AND SOUTHEAST MONTANA

CITY           SKY/WX    TMP DP  RH WIND       PRES   REMARKS
BAKER          CLOUDY    60  55  83 E10       30.11F
BILLINGS       MOCLDY    66  54  65 N10       30.11F
LIVINGSTON     CLOUDY    57  44  62 S5        30.17R
MILES CITY     LGT RAIN  70  58  65 E13       30.04F
FORSYTH          N/A     73  55  53 N6        30.06R
LAUREL           N/A     66  51  58 MISG      30.10R
ROUNDUP          N/A     63  55  75 CALM      30.03F
$$

REGIONAL REPORTS...DAKOTAS

CITY           SKY/WX    TMP DP  RH WIND       PRES   REMARKS
WILLISTON      CLEAR     63  54  72 CALM      30.10R
MINOT          MOCLDY    65  62  90 N6        30.09R
DICKINSON      MOCLDY    54  53  97 CALM      30.10S
BEACH            N/A     59  59 100 SE6       30.14F
CROSBY           N/A     54  54 100 CALM      30.13S
WATFORD CITY     N/A    N/A N/A N/A MISG        N/A
BISMARCK       CLOUDY    63  60  90 N5        30.06R
GRAND FORKS    CLOUDY    66  62  87 N8        30.00F
FARGO          CLOUDY    67  65  93 N6        29.97R
BUFFALO SD       N/A     63  60  90 NE6       30.05F
RAPID CITY     CLEAR     64  59  83 NW15      30.08F
$$

REGIONAL REPORTS...WYOMING/IDAHO/WASHINGTON

CITY           SKY/WX    TMP DP  RH WIND       PRES   REMARKS
GILLETTE       CLOUDY    66  58  75 W10       30.18R THUNDER
SHERIDAN       CLOUDY    68  49  50 NW7       30.09S
BUFFALO WY     CLOUDY    70  48  45 S14       30.16F
CODY           PTCLDY    64  43  45 CALM      30.17S
YELLOWSTONE LA   N/A     50  37  61 N5        30.38R
IDAHO FALLS    CLEAR     56  45  66 N9        30.12F
SALMON         CLEAR     55  46  71 CALM      30.13F
BOISE          CLEAR     73  49  42 S5        29.97R
SPOKANE        PTCLDY    67  54  63 NE5       30.03F
$$

REGIONAL REPORTS...ALBERTA

CITY           SKY/WX    TMP DP  RH WIND       PRES   REMARKS
EDMONTON       PTCLDY    57  55  94 E3        30.07S
CALGARY        MOCLDY    63  55  77 N8        30.14S
LETHBRIDGE     MOCLDY    57  55  94 S6        30.11S
MEDICINE HAT   MOCLDY    61  61 100 SE3       30.10F
WATERTON GATE    N/A     54  50  87 SW7         N/A
MILK RIVER       N/A     55  55 100 W5          N/A
ONEFOUR          N/A     61  55  82 NE8         N/A
$$

REGIONAL REPORTS...SASKATCHEWAN

CITY           SKY/WX    TMP DP  RH WIND       PRES   REMARKS
SWIFT CURRENT  CLEAR     57  55  94 SE10      30.12F
REGINA         PTCLDY    61  50  67 E5        30.14F
SASKATOON      PTCLDY    57  52  82 SW2       30.15S
CYPRESS HILLS    N/A     57  54  88 E6          N/A
VAL MARIE        N/A     61  57  88 E8          N/A
ROCKGLEN         N/A     59  54  82 E3          N/A
$$




USA.gov is the U.S. government's official web portal to all federal, state and local government web resources and services.